Regional Weather Roundup
Issued by NWS

Home | Current Version | Previous Version | Text Only | Print | Product List | Glossary On
Versions: 1 2 3 4 5 6 7 8 9 10 11 12 13 14 15 16 17 18 19 20 21 22 23 24 25 26 27 28 29 30 31 32 33 34 35 36 37 38 39 40 41 42 43 44 45 46 47 48 49 50
000
ASUS45 KABQ 210910
RWRNM
NEW MEXICO REGIONAL WEATHER ROUNDUP
NATIONAL WEATHER SERVICE ALBUQUERQUE NM
300 AM MDT MON AUG 21 2017

NOTE: "FAIR" MEANS FEW OR NO CLOUDS BELOW 12,000 FEET AGL WITH NO
       SIGNIFICANT WEATHER OR OBSTRUCTIONS TO VISION.

      THIS PRODUCT IS RELEASED AS TWO VERSIONS.  ONE VERSION NEAR
      THE TOP OF THE HOUR CONTAINING PRELIMINARY DATA FROM ALBUQUERQUE
      AND OTHER STATIONS.  A FINAL VERSION WITH ADDITIONAL DATA IS
      ISSUED ABOUT 10 MINUTES AFTER THE HOUR.

NMZ501-503-504-510>518-211000-
NORTHWEST PLATEAU/NORTHCENTRAL MOUNTAINS

CITY           SKY/WX    TMP DP  RH WIND       PRES   REMARKS
FARMINGTON     FAIR      62  54  74 E7        30.20S
LOS ALAMOS     LGT RAIN  54  54 100 NW12      30.33F
SANTA FE       RAIN      57  57 100 N5        30.28S FOG
TAOS           CLOUDY    56  54  93 S7        30.35F
ANGEL FIRE     LGT RAIN  50  48  92 CALM      30.42S

$$
NMZ402-403-502-505>509-211000-
WESTCENTRAL MOUNTAINS/SOUTHWEST MOUNTAINS

CITY           SKY/WX    TMP DP  RH WIND       PRES   REMARKS
GALLUP         FAIR      55  54  96 CALM      30.26S
GRANTS         CLOUDY    60  51  71 SE7       30.28S
SILVER CITY    LGT RAIN  64  62  94 CALM      30.21S

$$
NMZ407-409-411-412-211000-
SOUTHERN DESERTS

CITY           SKY/WX    TMP DP  RH WIND       PRES   REMARKS
DEMING         FAIR      65  63  93 NE3       30.14F
LAS CRUCES     CLOUDY    67  65  94 CALM      30.16S
HOLLOMAN AFB   FAIR      66  66 100 NW5       30.15F
ALAMOGORDO     MOCLDY    66  64  94 N3        30.15S
T OR C         CLOUDY    69  61  75 SW3       30.16F

$$
NMZ519>523-211000-
CENTRAL VALLEYS/CENTRAL HIGHLANDS

CITY           SKY/WX    TMP DP  RH WIND       PRES   REMARKS
ALBUQUERQUE    LGT RAIN  62  59  90 N5        30.21F
MORIARTY ARPT  LGT RAIN  63  62  96 SE7       30.26F
CLINES CORNERS CLOUDY    57  55  93 E9        30.30F
BELEN          DRIZZLE   60  60 100 NE3       30.21S
SOCORRO        CLOUDY    65  58  79 NW9       30.17S

$$
NMZ524>526-539-540-211000-
SOUTHCENTRAL MOUNTAINS

CITY           SKY/WX    TMP DP  RH WIND       PRES   REMARKS
RUIDOSO        NOT AVBL

$$
NMZ527>531-211000-
NORTHEAST HIGHLANDS/NORTHEAST PLAINS

CITY           SKY/WX    TMP DP  RH WIND       PRES   REMARKS
LAS VEGAS      HVY RAIN  54  53  97 NW9       30.32F FOG
RATON          FAIR      59  56  89 NW5       30.26F
CLAYTON        CLOUDY    63  57  81 SW7       30.18F

$$
NMZ532>537-211000-
EASTCENTRAL PLAINS

CITY           SKY/WX    TMP DP  RH WIND       PRES   REMARKS
SANTA ROSA     LGT RAIN  64  62  96 CALM      30.18F
TUCUMCARI      FAIR      69  64  84 W9        30.13S
CANNON AFB     CLOUDY    65  65 100 E3        30.17F
CLOVIS AIRPORT CLOUDY    65  63  93 SE3       30.17F

$$
NMZ028-029-538-211000-
SOUTHEAST PLAINS

CITY           SKY/WX    TMP DP  RH WIND       PRES   REMARKS
ROSWELL        FAIR      70  66  87 SE6       30.10F
ARTESIA        DRIZZLE   68  68 100 CALM      30.11S
CARLSBAD       HVY RAIN  68  68 100 S8        30.11R FOG
HOBBS          CLOUDY    70  68  94 CALM      30.13R


$$



USA.gov is the U.S. government's official web portal to all federal, state and local government web resources and services.